GFSSE_850_dewp_129.txt.gz
Dewpoint
10 10 10 9 8 7 8 8 8 6 6 9 10 10 9 6 6 7 9 7 6 4 3 4 4 7 12 12 10 9 10 11 11 11 10 10 10 10 10 10 10 10 10
10 10 10 8 8 8 8 8 8 7 6 8 10 11 10 8 6 6 5 5 6 6 3 3 5 10 10 9 8 9 10 11 10 11 10 10 10 10 10 10 10 10 10
8 9 10 10 9 8 9 9 9 7 5 7 10 11 11 10 7 7 7 6 6 7 6 6 8 9 9 9 9 10 11 10 10 11 10 10 10 11 11 11 10 10 11
9 10 10 11 10 9 9 9 8 6 5 8 10 11 11 10 8 8 8 7 7 7 8 8 9 10 10 9 9 10 10 10 10 11 10 10 11 11 10 11 10 11 10
8 11 13 13 12 10 9 9 9 6 6 8 10 11 11 11 8 8 8 8 7 7 7 9 10 9 10 10 10 10 10 10 11 11 11 10 11 11 11 10 11 10 10
6 11 13 14 14 13 11 9 8 7 7 8 10 11 11 11 9 8 8 8 8 7 7 7 8 10 10 10 10 11 10 10 12 11 11 10 10 10 10 10 10 10 10
4 10 13 15 14 13 13 11 8 6 7 8 10 11 11 12 10 8 8 8 8 7 7 7 9 10 9 10 10 10 11 10 10 10 10 10 10 10 10 10 10 10 9
-2 2 5 10 14 13 13 12 9 6 6 8 9 11 11 11 10 9 8 8 8 7 7 7 9 10 9 9 9 10 11 11 10 10 9 9 11 10 10 10 11 10 9
-0 -1 1 4 8 14 13 12 10 8 6 7 8 10 11 11 11 9 9 8 8 7 7 7 8 10 10 8 8 7 8 9 10 11 10 10 11 10 10 10 10 10 9
-4 -1 2 3 9 14 15 14 12 9 8 6 7 9 11 11 11 10 9 9 8 8 7 7 8 10 10 8 7 6 7 7 9 8 11 8 10 10 10 10 10 10 9
-6 -4 3 9 12 13 13 14 14 12 9 8 9 10 10 11 10 11 10 10 9 9 8 7 8 10 10 8 6 5 5 8 9 10 10 9 9 10 10 10 10 10 9
-6 -1 6 10 11 13 14 14 13 14 11 10 10 10 11 12 12 11 11 11 10 10 9 8 8 9 10 9 7 5 4 5 10 10 9 8 8 8 10 10 10 10 9
-7 -6 6 12 12 9 13 15 15 14 12 11 11 11 12 12 12 12 11 11 11 11 10 9 8 9 9 9 7 5 4 3 6 8 9 10 10 9 9 9 10 10 9
-6 -3 10 4 5 5 11 14 15 14 14 12 11 10 10 11 11 12 12 11 12 11 11 9 8 8 10 10 9 7 5 2 3 7 9 9 10 10 10 9 9 10 10
-4 6 9 8 6 8 12 13 13 12 13 14 14 12 11 10 10 10 11 11 11 12 12 11 9 8 9 10 10 8 6 3 2 7 10 10 10 11 10 10 9 10 10
-0 2 6 6 6 7 7 8 10 11 12 13 14 14 14 13 12 11 10 10 11 11 12 12 11 9 9 9 10 9 7 5 3 8 10 10 10 10 10 10 10 9 10
-2 -1 1 2 2 4 7 8 7 7 8 11 12 12 13 13 14 13 12 11 10 12 12 12 12 11 10 9 9 10 8 7 5 5 8 10 10 10 10 10 9 8 9
-2 -3 -3 -3 -2 -0 0 2 3 2 2 3 3 4 8 11 12 13 13 13 12 11 11 12 12 12 11 11 10 10 9 9 7 6 10 10 11 10 9 10 10 8 8
-3 -3 -4 -5 -5 -5 -6 -5 -5 -5 -4 -2 -2 -3 -2 1 5 8 11 12 12 12 12 11 11 11 12 12 11 11 10 10 11 11 10 10 9 11 10 9 9 9 8
-4 -5 -6 -7 -8 -9 -10 -10 -10 -11 -11 -12 -13 -14 -14 -12 -5 3 10 11 9 7 12 12 11 11 11 12 12 12 12 10 10 11 11 11 10 11 11 10 9 8 9
-6 -6 -7 -8 -8 -9 -10 -11 -13 -13 -14 -15 -16 -15 -12 -12 -12 -7 5 7 9 10 10 11 12 12 12 11 12 12 13 12 11 12 12 12 12 11 11 11 11 10 10
-6 -6 -7 -7 -7 -7 -7 -7 -7 -8 -10 -11 -12 -12 -10 -8 -8 -8 -4 5 9 10 9 9 12 12 12 12 11 12 13 13 12 12 12 12 12 12 12 11 11 11 11
-6 -6 -6 -6 -6 -6 -6 -6 -6 -6 -6 -6 -7 -8 -7 -6 -6 -6 -6 -2 6 9 11 8 9 9 12 12 11 10 12 12 12 12 12 12 12 12 12 12 12 11 11
-6 -6 -6 -5 -5 -5 -5 -4 -4 -4 -4 -4 -4 -5 -5 -5 -5 -5 -5 -5 -0 7 9 10 8 9 9 10 10 10 10 8 11 11 11 11 12 12 11 12 12 11 10
-6 -6 -6 -5 -5 -5 -5 -4 -4 -4 -4 -3 -3 -3 -3 -3 -3 -3 -4 -4 -5 1 6 10 10 8 8 9 8 12 10 9 8 10 10 10 10 11 11 11 12 11 11
-6 -6 -5 -5 -5 -5 -5 -5 -4 -4 -4 -4 -3 -2 -2 -2 -1 -1 -2 -3 -4 -4 1 8 10 10 8 11 10 12 10 10 10 10 10 10 9 9 10 11 11 11 11

GFSSE_850_dewp_135.txt.gz
Dewpoint
11 10 9 9 8 9 9 8 9 9 8 8 7 7 4 2 7 9 9 8 6 5 5 6 7 6 10 11 11 10 10 9 10 10 9 9 9 10 10 9 10 12 10
11 11 10 10 9 9 9 9 9 10 10 9 9 8 7 3 2 6 7 5 4 4 4 5 5 6 10 10 8 8 9 10 9 10 9 10 9 10 10 10 9 10 9
9 11 10 10 10 10 10 11 10 10 10 10 10 9 9 7 2 2 5 5 4 4 3 3 4 7 9 8 8 9 10 10 10 10 10 10 10 10 10 10 10 9 10
10 11 11 11 11 11 11 11 11 11 10 10 10 10 9 9 5 2 4 5 5 5 4 3 4 7 8 8 8 9 10 9 10 11 12 12 11 10 10 10 10 10 10
11 12 12 12 11 11 11 11 11 11 10 10 10 10 9 9 8 5 3 5 5 5 5 5 6 7 8 8 9 9 9 9 10 10 11 11 11 11 10 10 10 10 10
12 14 14 13 13 12 12 12 11 11 11 10 10 10 10 9 9 7 5 6 6 6 6 6 6 8 8 8 9 9 9 9 9 10 10 11 11 11 10 10 10 10 10
9 12 13 14 14 14 14 13 12 11 11 11 11 10 10 10 9 9 8 7 7 7 6 6 7 7 8 9 9 9 9 9 10 10 10 10 11 11 10 10 10 10 10
6 7 11 12 12 13 14 14 13 12 11 11 11 11 11 10 10 10 9 9 8 8 7 6 7 7 8 9 9 9 9 9 10 10 10 10 10 10 11 10 10 10 10
1 9 9 9 10 12 14 14 13 12 12 11 11 12 11 11 11 10 10 10 9 9 8 7 7 7 9 8 8 9 9 10 10 10 10 9 9 10 11 10 10 10 10
-4 2 7 11 12 13 13 14 14 13 13 12 12 12 13 12 11 11 11 11 10 10 9 8 8 8 9 8 8 9 9 10 10 9 9 9 8 10 10 10 11 10 9
-5 -2 7 11 13 14 13 14 14 14 14 13 12 12 13 13 12 12 12 11 11 11 10 9 9 9 10 9 9 8 8 9 9 9 10 8 7 9 10 10 11 10 10
-1 1 4 10 11 9 12 12 13 13 13 14 14 12 13 14 14 12 12 12 11 11 11 10 10 10 11 11 10 9 8 8 8 7 9 8 8 8 8 10 10 10 10
2 7 8 9 9 10 8 7 11 11 11 12 12 13 12 12 14 13 12 12 12 12 11 11 11 10 10 10 11 10 8 8 7 7 8 9 9 7 7 9 10 10 10
4 5 7 8 8 8 9 8 8 8 8 9 11 11 11 12 12 12 13 13 13 13 12 11 11 11 10 9 10 11 10 8 7 6 7 10 11 8 7 8 9 10 10
3 4 6 5 6 7 7 8 9 9 7 7 8 10 10 9 10 11 13 13 12 13 13 13 12 11 11 10 9 10 10 9 8 6 6 9 10 9 9 8 8 9 10
-3 -2 -2 -0 0 0 1 3 5 5 6 6 6 7 8 8 9 11 7 13 13 13 14 13 13 12 11 11 10 9 10 10 9 8 7 6 10 10 11 10 10 8 8
-3 -3 -4 -4 -4 -5 -5 -4 -3 -1 1 2 3 2 2 3 4 4 8 4 2 12 13 13 13 13 13 11 11 10 9 9 9 9 8 7 6 10 11 11 10 10 9
-4 -3 -4 -4 -4 -4 -5 -5 -7 -8 -7 -6 -5 -3 -2 -3 -2 -2 -1 2 6 1 -2 -8 10 10 12 12 11 10 10 10 9 9 9 8 6 6 10 11 11 10 10
-5 -5 -5 -5 -5 -5 -5 -5 -5 -6 -8 -9 -10 -10 -10 -9 -8 -8 -8 -10 -9 -3 1 -3 -6 -2 7 11 12 12 10 10 10 9 9 9 8 5 9 10 9 11 10
-6 -7 -7 -7 -7 -7 -7 -8 -8 -8 -9 -9 -9 -9 -10 -10 -11 -11 -12 -13 -12 -11 -9 -6 -1 2 -2 5 9 12 11 11 11 10 9 9 9 7 5 10 10 10 10
-7 -7 -7 -7 -7 -8 -8 -8 -8 -8 -8 -8 -8 -8 -8 -8 -8 -8 -9 -10 -11 -10 -8 -10 -10 -5 1 8 11 8 11 10 10 9 9 9 10 9 7 5 9 11 11
-6 -7 -7 -7 -6 -6 -6 -6 -6 -6 -7 -7 -7 -7 -7 -6 -7 -7 -7 -7 -8 -9 -8 -7 -7 1 5 6 10 11 11 9 9 9 9 8 9 10 9 6 7 11 11
-6 -6 -6 -6 -5 -5 -5 -5 -5 -4 -4 -5 -5 -5 -5 -5 -5 -5 -5 -5 -6 -6 -8 -7 -7 -3 8 9 10 9 8 8 9 8 10 9 8 10 9 10 10 10 11
-5 -5 -5 -5 -5 -5 -5 -5 -5 -4 -4 -4 -4 -4 -3 -3 -3 -3 -3 -3 -4 -4 -5 -7 -6 -5 6 10 10 10 9 7 9 8 9 9 9 9 10 9 10 10 11
-5 -5 -5 -5 -5 -5 -5 -6 -6 -6 -6 -6 -5 -4 -4 -3 -3 -2 -2 -2 -1 -2 -3 -4 -6 -5 -3 9 10 10 10 8 8 9 10 10 12 11 10 10 10 10 11
-5 -5 -5 -5 -5 -5 -6 -7 -7 -7 -7 -7 -6 -6 -5 -4 -4 -3 -2 -1 -1 -1 -0 -2 -3 -4 -4 2 8 10 10 10 10 9 9 9 10 11 11 11 10 10 10

GFSSE_850_dewp_141.txt.gz
Dewpoint
14 12 11 10 9 8 7 7 6 6 6 5 5 5 7 11 10 11 9 7 6 6 7 7 8 7 9 11 11 11 10 9 10 10 10 9 9 9 9 9 13 14 8
15 11 11 11 10 9 9 9 9 9 8 7 6 6 6 9 10 10 10 9 8 7 7 7 7 7 9 10 10 9 8 9 9 9 9 9 9 9 10 12 14 12 8
16 12 11 11 11 11 11 10 10 10 10 9 8 7 7 7 8 10 10 9 8 7 7 7 7 6 8 9 9 8 9 9 9 9 9 14 13 10 9 11 13 11 8
14 16 14 12 12 12 12 12 11 11 10 10 10 9 8 9 7 8 9 9 7 6 6 6 6 5 8 9 8 8 9 9 9 9 10 14 14 10 9 9 11 10 9
14 16 13 12 12 12 12 12 12 12 11 11 10 10 9 9 9 9 7 6 6 6 6 5 5 6 9 9 8 9 9 9 9 9 14 13 14 11 9 9 9 10 10
16 16 13 13 12 12 12 12 12 12 12 12 11 10 10 10 10 10 8 6 5 6 6 6 5 5 8 8 9 9 9 9 8 9 15 13 12 12 10 10 10 10 11
16 16 14 13 13 14 14 14 14 13 12 12 12 11 11 11 11 10 9 7 6 6 6 6 6 7 7 8 9 9 10 9 9 13 13 13 13 13 10 10 10 10 10
13 13 12 13 12 11 9 12 13 13 13 12 12 12 11 11 11 11 10 9 8 8 7 7 7 8 8 9 9 9 10 10 9 13 11 12 12 13 11 10 10 10 10
6 8 7 7 8 10 10 12 13 13 13 13 12 12 12 11 11 11 10 10 9 9 8 8 8 8 8 9 9 10 10 10 11 12 11 12 12 12 10 10 10 10 10
4 6 7 7 10 12 13 12 13 13 14 14 13 13 12 12 12 11 11 11 11 10 9 9 8 8 8 8 9 10 10 10 10 12 12 11 11 12 10 10 10 11 10
-1 -0 1 2 5 9 12 13 13 15 14 13 12 12 13 12 13 14 12 11 11 11 11 10 9 9 9 9 9 10 10 10 13 12 13 11 10 12 8 10 10 11 10
-0 -1 1 3 4 6 8 9 10 11 11 11 10 10 13 13 13 13 13 13 13 12 11 11 10 10 10 11 11 10 10 12 13 13 12 11 11 11 8 9 10 10 11
2 1 2 2 3 3 4 5 6 7 7 8 7 9 11 12 12 13 13 13 13 12 12 12 11 11 11 13 12 12 11 12 13 12 12 11 11 10 8 7 9 10 11
0 0 0 1 2 3 3 3 4 5 6 6 6 6 5 6 9 11 9 12 13 13 13 13 13 12 12 13 12 11 13 11 12 12 11 11 11 10 9 9 8 9 10
-1 -2 -4 -4 -4 -4 -4 -3 -3 -2 -1 -0 1 3 3 4 4 5 7 10 10 11 12 13 13 13 12 12 11 10 12 14 13 12 12 11 11 11 8 9 9 7 9
-2 -2 -4 -4 -5 -5 -5 -5 -5 -5 -5 -5 -5 -6 -5 -2 1 2 2 6 10 11 8 11 12 13 13 13 12 12 11 12 13 11 12 12 11 10 9 9 10 7 7
-2 -3 -5 -5 -6 -6 -6 -6 -6 -6 -6 -6 -5 -5 -5 -7 -7 -5 -2 0 5 9 8 8 6 9 12 12 13 13 13 12 11 13 13 12 12 11 11 9 10 8 8
-2 -3 -4 -5 -6 -7 -7 -7 -7 -6 -7 -5 -5 -6 -5 -6 -6 -7 -8 -6 1 2 4 9 7 9 -0 5 10 9 11 10 7 11 13 12 12 13 11 10 9 9 9
-4 -6 -6 -6 -7 -7 -8 -8 -8 -7 -4 -2 -4 -1 -1 -6 -6 -7 -7 -7 -5 -4 -1 2 7 10 10 -1 -7 -7 -3 -2 8 7 10 11 11 11 12 12 10 8 10
-3 -5 -5 -6 -7 -8 -7 -7 -5 -4 -2 -3 -3 -2 -2 -2 -2 -5 -6 -6 -5 -4 -2 2 4 5 8 8 8 6 -4 -6 -1 7 7 5 11 10 11 11 11 11 9
-2 -2 -4 -5 -5 -6 -4 -4 -3 -3 -3 -2 -2 -1 -0 -0 -0 1 0 0 0 1 2 2 3 4 5 7 8 8 8 6 -2 -0 7 6 6 9 10 7 10 11 11
-2 -2 -3 -3 -4 -3 -3 -4 -3 -3 -3 -2 -2 -1 -1 -1 -0 -0 -0 0 1 2 2 2 3 4 5 4 6 7 7 7 9 -0 4 6 7 11 10 9 9 8 12
-2 -2 -3 -3 -3 -3 -3 -3 -3 -3 -3 -3 -3 -3 -3 -2 -2 -2 -2 -2 -1 -0 1 2 3 3 4 4 4 6 6 7 5 8 7 4 12 11 10 11 10 6 8
-3 -2 -2 -2 -3 -3 -3 -3 -3 -4 -4 -4 -4 -4 -3 -3 -3 -3 -3 -3 -2 -1 -1 -0 2 3 3 4 4 4 7 7 9 8 7 8 8 10 11 11 12 11 9
-3 -3 -2 -2 -3 -3 -3 -3 -4 -4 -4 -5 -5 -5 -5 -5 -5 -4 -4 -4 -3 -3 -2 -1 -1 1 3 4 4 3 4 6 8 9 10 9 10 11 10 9 9 11 11
-3 -2 -2 -2 -3 -4 -4 -3 -4 -4 -5 -6 -6 -6 -6 -6 -6 -6 -5 -5 -4 -4 -3 -2 -2 -1 0 2 3 4 4 4 6 9 9 9 10 11 11 11 11 11 11

GFSSE_850_dewp_144.txt.gz
Dewpoint
15 10 10 8 7 7 6 5 6 6 6 5 5 5 3 7 10 10 10 8 6 6 7 7 8 7 7 11 11 10 9 8 9 9 10 9 9 9 8 12 14 9 7
14 11 10 10 9 9 8 9 9 9 8 8 7 6 6 6 8 9 10 9 8 6 7 7 8 7 9 11 10 10 8 9 9 9 10 9 9 9 9 11 13 11 7
12 11 11 11 11 11 10 10 10 10 10 10 9 8 7 7 7 7 10 10 8 6 7 7 7 7 9 10 10 8 8 9 8 9 9 10 9 9 9 12 13 10 8
17 15 12 12 12 12 12 11 11 11 11 10 10 9 9 9 8 7 9 9 9 7 6 6 7 7 7 10 9 8 9 9 8 9 11 14 12 9 9 11 12 9 7
16 15 13 12 12 12 12 12 12 12 12 11 11 10 10 10 10 9 10 9 9 8 7 6 5 5 6 9 8 9 9 9 9 9 11 13 11 11 9 9 10 9 9
14 13 13 13 12 12 12 12 12 12 12 12 12 11 11 11 11 11 10 9 9 8 7 7 6 5 6 8 9 9 9 9 9 10 13 12 12 12 9 9 9 9 10
15 14 14 13 13 14 14 13 13 14 13 13 12 12 11 11 11 11 11 10 9 7 7 7 7 6 6 8 8 9 9 9 9 9 13 13 13 11 11 10 9 10 10
14 14 13 13 11 10 10 10 10 11 13 13 13 12 12 11 11 11 11 11 10 8 8 7 7 7 7 8 8 8 8 9 9 10 13 13 13 11 11 10 9 10 10
9 10 9 8 6 7 7 10 10 11 12 13 13 12 12 11 11 11 11 11 10 9 9 8 8 8 8 8 8 9 8 9 8 11 13 13 11 11 11 10 10 10 10
2 4 4 4 5 7 6 9 11 12 13 13 13 12 13 13 11 12 12 11 11 10 10 10 9 8 8 8 8 8 8 9 8 8 12 13 13 12 12 9 9 9 10
-4 -3 -3 -2 0 4 6 9 11 11 11 9 10 8 9 13 14 13 13 13 12 11 11 11 10 10 9 8 8 8 8 9 8 8 11 12 11 12 10 11 9 9 10
-3 -5 -3 -0 1 2 2 5 5 6 4 6 4 5 5 10 12 13 13 13 13 12 12 11 11 10 10 10 8 8 8 9 8 8 9 12 11 12 11 11 7 9 10
-1 -2 -1 -0 0 1 1 1 2 2 3 3 4 3 3 3 2 6 8 11 13 13 13 12 12 12 11 10 10 9 11 11 10 9 9 13 13 13 11 11 7 9 10
-1 -3 -4 -4 -4 -5 -5 -5 -5 -4 -4 -4 -3 -2 -1 -1 0 0 0 2 5 10 13 13 13 12 12 12 10 10 12 12 12 10 10 12 11 12 11 10 8 7 10
-1 -3 -5 -5 -6 -6 -6 -6 -6 -6 -6 -6 -6 -6 -6 -6 -6 -5 -2 0 2 10 10 9 10 12 13 13 13 11 12 12 13 13 10 11 11 12 11 11 9 8 8
-1 -2 -5 -6 -6 -7 -7 -7 -7 -7 -7 -7 -6 -6 -6 -6 -6 -6 -7 -6 -2 3 10 11 9 5 8 9 9 9 12 13 12 12 11 11 11 8 11 11 9 8 9
-1 -3 -5 -6 -7 -7 -7 -7 -7 -7 -7 -7 -5 -6 -5 -5 -6 -6 -6 -6 -6 -3 -0 8 7 9 8 1 10 11 12 11 10 12 9 11 9 12 12 11 10 8 9
-2 -4 -5 -6 -6 -6 -7 -7 -8 -7 -8 -5 -4 -5 -2 -1 -5 -6 -7 -6 -6 -6 -6 -2 1 7 9 9 5 -1 -3 10 11 10 9 8 7 8 9 10 11 9 8
-4 -5 -6 -6 -6 -7 -8 -9 -10 -10 -9 -8 -6 -4 -1 -1 -1 -2 -4 -6 -6 -6 -5 -5 -5 -0 6 9 11 9 -2 -7 -7 5 9 9 8 6 7 10 9 9 10
-5 -5 -5 -6 -7 -8 -9 -9 -9 -9 -9 -8 -6 -4 -2 -1 0 0 0 -1 -2 -3 -3 -1 1 -0 1 5 9 9 9 3 -11 -6 -6 2 8 6 5 10 11 7 9
-2 -4 -5 -6 -7 -7 -8 -7 -7 -6 -5 -5 -4 -3 -2 -1 -1 -1 -0 -0 0 -0 0 1 1 2 0 1 3 5 6 9 6 -3 -9 -8 -2 6 9 10 10 9 9
-1 -2 -4 -5 -5 -6 -6 -4 -4 -4 -4 -4 -3 -3 -2 -3 -2 -2 -2 -2 -1 -1 -0 1 2 2 2 2 4 5 7 7 7 5 -2 -7 -9 -1 7 8 7 9 10
-2 -2 -4 -4 -3 -3 -4 -4 -5 -4 -4 -4 -4 -4 -4 -4 -4 -4 -4 -3 -3 -3 -2 -1 0 2 3 3 4 5 6 6 5 1 3 5 3 2 1 8 7 6 9
-2 -2 -2 -2 -2 -3 -4 -7 -4 -4 -4 -4 -5 -5 -5 -5 -5 -5 -5 -5 -4 -4 -3 -3 -1 -0 1 3 3 4 5 6 7 8 7 9 9 8 7 4 6 6 9
-2 -2 -1 -2 -2 -3 -10 -6 -5 -4 -4 -5 -5 -6 -6 -6 -6 -6 -5 -5 -5 -5 -4 -4 -3 -2 -1 1 2 3 4 4 4 6 8 6 7 9 10 10 5 10 10
-2 -2 -1 -2 -3 -4 -13 -6 -6 -5 -4 -5 -6 -6 -7 -7 -7 -7 -6 -6 -6 -5 -5 -4 -4 -3 -2 -1 0 2 3 4 5 6 7 7 8 7 9 9 11 10 9